TimeCDT,TemperatureF,Dew PointF,Humidity,Sea Level PressureIn,VisibilityMPH,Wind Direction,Wind SpeedMPH,Gust SpeedMPH,PrecipitationIn,Events,Conditions,WindDirDegrees,DateUTC
12:15 AM,19.4,8.6,63,30.01,10.0,WSW,4.6,-,N/A,,Clear,250,2013-03-22 05:15:00
12:35 AM,19.4,10.4,68,30.01,10.0,West,5.8,-,N/A,,Clear,270,2013-03-22 05:35:00
12:55 AM,19.4,10.4,68,30.02,10.0,West,5.8,-,N/A,,Clear,280,2013-03-22 05:55:00
1:15 AM,17.6,8.6,68,30.02,10.0,West,5.8,-,N/A,,Clear,280,2013-03-22 06:15:00
1:35 AM,17.6,8.6,68,30.02,10.0,WNW,6.9,-,N/A,,Clear,290,2013-03-22 06:35:00
1:55 AM,17.6,8.6,68,30.02,10.0,WNW,5.8,-,N/A,,Clear,290,2013-03-22 06:55:00
2:15 AM,17.6,8.6,68,30.02,10.0,WNW,5.8,-,N/A,,Clear,290,2013-03-22 07:15:00
2:35 AM,17.6,8.6,68,30.02,10.0,West,6.9,-,N/A,,Clear,280,2013-03-22 07:35:00
2:55 AM,17.6,8.6,68,30.02,10.0,WNW,6.9,-,N/A,,Clear,290,2013-03-22 07:55:00
3:15 AM,17.6,8.6,68,30.02,10.0,WNW,8.1,-,N/A,,Clear,290,2013-03-22 08:15:00
3:35 AM,15.8,8.6,73,30.01,10.0,WNW,6.9,-,N/A,,Clear,300,2013-03-22 08:35:00
3:55 AM,17.6,8.6,68,30.01,10.0,WNW,8.1,-,N/A,,Clear,290,2013-03-22 08:55:00
4:15 AM,17.6,8.6,68,30.02,10.0,WNW,5.8,-,N/A,,Clear,290,2013-03-22 09:15:00
4:35 AM,15.8,8.6,73,30.02,10.0,WNW,6.9,-,N/A,,Clear,290,2013-03-22 09:35:00
4:55 AM,15.8,8.6,73,30.02,10.0,West,6.9,-,N/A,,Clear,280,2013-03-22 09:55:00
5:15 AM,15.8,8.6,73,30.02,10.0,West,8.1,-,N/A,,Clear,280,2013-03-22 10:15:00
5:35 AM,15.8,8.6,73,30.02,10.0,WNW,3.5,-,N/A,,Clear,300,2013-03-22 10:35:00
5:45 AM,14.0,6.8,73,30.03,10.0,WNW,4.6,-,N/A,,Clear,290,2013-03-22 10:45:00
6:45 AM,12.2,6.8,79,30.02,10.0,West,6.9,-,N/A,,Partly Cloudy,280,2013-03-22 11:45:00
7:45 AM,14.0,8.6,79,30.02,10.0,WNW,6.9,-,N/A,,Partly Cloudy,290,2013-03-22 12:45:00
8:45 AM,17.6,8.6,68,30.02,10.0,NNW,6.9,-,N/A,,Scattered Clouds,340,2013-03-22 13:45:00
9:45 AM,19.4,10.4,68,30.04,10.0,West,4.6,-,N/A,,Partly Cloudy,270,2013-03-22 14:45:00
10:45 AM,23.0,12.2,63,30.04,10.0,West,5.8,-,N/A,,Partly Cloudy,270,2013-03-22 15:45:00
11:45 AM,26.6,14.0,59,30.04,10.0,WNW,5.8,-,N/A,,Partly Cloudy,300,2013-03-22 16:45:00
12:45 PM,28.4,14.0,55,30.03,10.0,NW,9.2,-,N/A,,Clear,310,2013-03-22 17:45:00
1:45 PM,28.4,12.2,51,30.03,10.0,WNW,6.9,-,N/A,,Clear,290,2013-03-22 18:45:00
2:45 PM,30.2,12.2,47,30.01,10.0,NNW,6.9,-,N/A,,Clear,330,2013-03-22 19:45:00
3:45 PM,30.2,12.2,47,30.00,10.0,West,3.5,-,N/A,,Clear,280,2013-03-22 20:45:00
4:45 PM,30.2,14.0,51,30.01,10.0,NW,4.6,-,N/A,,Clear,320,2013-03-22 21:45:00
5:45 PM,30.2,15.8,55,30.03,10.0,NW,8.1,-,N/A,,Clear,320,2013-03-22 22:45:00
6:45 PM,28.4,15.8,59,30.04,10.0,NW,8.1,-,N/A,,Clear,310,2013-03-22 23:45:00
7:45 PM,26.6,15.8,64,30.04,10.0,Calm,Calm,-,N/A,,Clear,0,2013-03-23 00:45:00
9:15 PM,24.8,15.8,69,30.05,10.0,Calm,Calm,-,N/A,,Clear,0,2013-03-23 02:15:00
9:35 PM,23.0,15.8,74,30.06,10.0,Calm,Calm,-,N/A,,Clear,0,2013-03-23 02:35:00
9:55 PM,21.2,14.0,74,30.07,10.0,Calm,Calm,-,N/A,,Clear,0,2013-03-23 02:55:00
10:15 PM,23.0,15.8,74,30.07,10.0,Calm,Calm,-,N/A,,Clear,0,2013-03-23 03:15:00
10:35 PM,21.2,15.8,80,30.07,10.0,Calm,Calm,-,N/A,,Clear,0,2013-03-23 03:35:00
10:55 PM,21.2,15.8,80,30.07,10.0,Calm,Calm,-,N/A,,Clear,0,2013-03-23 03:55:00
11:15 PM,21.2,15.8,80,30.07,10.0,Calm,Calm,-,N/A,,Clear,0,2013-03-23 04:15:00
11:35 PM,19.4,15.8,86,30.07,10.0,Calm,Calm,-,N/A,,Clear,0,2013-03-23 04:35:00
11:55 PM,19.4,15.8,86,30.07,10.0,Calm,Calm,-,N/A,,Clear,0,2013-03-23 04:55:00